Location: Coce?ti
(46.3833°N, 22.8000°E)
Time: 20:46:09
(UTC+00:00)

Daily predictions for brighter satellites

Satellite Brightness Start Highest point End
(mag) Time Altitude Azimuth Time Altitude Azimuth Time Altitude Azimuth
NOSS 2-3 (C) 4.1 15:50:40 10° S 15:54:21 36° ESE 15:58:30 10° NE
Cosmos 1953 2.3 15:51:01 10° S 15:55:04 81° E 15:59:09 10° N
CORIOLIS 4.2 15:53:25 10° SSE 15:58:46 87° ENE 16:04:09 10° NNW
Lacrosse 4 Rocket 2.0 15:56:36 10° NNW 16:00:41 40° NE 16:04:50 10° ESE
SL-16 R/B 2.5 15:56:55 10° S 16:02:18 47° ESE 16:07:43 10° NE
Cosmos 2251 Rocket 4.3 15:58:20 10° N 16:02:57 30° ENE 16:07:31 10° ESE
CZ-2C R/B 4.1 15:57:22 10° S 16:03:05 59° W 16:08:42 10° NNW
Cosmos 1821 Rocket 4.1 15:56:45 10° S 16:03:08 88° ESE 16:09:31 10° N
Cosmos 1544 Rocket 4.0 16:01:42 10° SSE 16:05:54 43° E 16:10:08 10° NNE
NOSS 2 (A) 4.1 16:03:08 10° NNW 16:05:55 62° NE 16:08:21 10° SE
Cosmos 1300 3.1 16:03:25 10° SSE 16:06:59 40° E 16:10:34 10° NNE
SL-19 R/B 4.5 16:01:30 10° NNE 16:07:02 52° ESE 16:12:26 10° S
BREEZE M DEB (TANK) 4.5 16:07:31 10° W 16:11:35 63° S 16:36:58 10° ESE
Meteor 1-16 Rocket 4.5 16:06:21 10° SSW 16:12:14 81° WNW 16:17:58 10° N
Cosmos 1934 Rocket 4.0 16:06:29 10° S 16:12:25 57° E 16:18:20 10° NNE
Cosmos 2322 Rocket 2.5 16:08:34 10° S 16:13:50 44° ESE 16:19:09 10° NE
Cosmos 2219 Rocket 3.9 16:17:57 10° ESE 16:19:32 12° E 16:19:32 12° E
Iridium 4 Rocket 3.4 16:17:14 10° N 16:21:55 61° E 16:27:01 10° SSE
deb Chang Zheng 4 3.4 16:18:05 10° SSE 16:22:17 82° ENE 16:26:33 10° NNW
Cosmos 2360 Rocket 2.9 16:18:01 10° SSE 16:22:56 32° ESE 16:27:53 10° NE
Cosmos 614 Rocket 4.3 16:18:13 10° N 16:23:05 43° ENE 16:27:56 10° SE
Cosmos 304 Rocket 4.0 16:18:58 10° S 16:23:33 48° ESE 16:28:11 10° NNE
Cosmos 1844 4.3 16:18:26 10° NNW 16:23:46 36° NE 16:29:01 10° ESE
Okean O Rocket 1.6 16:20:40 10° SSE 16:24:55 59° ENE 16:29:14 10° N
NOSS 8 (E) 4.3 16:21:35 10° SW 16:25:00 74° NW 16:27:58 10° NE
Cosmos 839 Rocket 4.2 16:18:10 10° NNW 16:25:55 73° NE 16:32:17 10° SE
CZ-4C R/B 3.6 16:22:57 10° NNE 16:25:58 31° E 16:28:54 10° SSE
ARGOS 3.3 16:22:32 10° SE 16:27:46 54° ENE 16:33:04 10° N
Cosmos 2344 4.3 16:19:14 10° NW 16:28:05 65° NE 16:40:20 10° SE
CZ-4 R/B 2.2 16:27:03 10° SE 16:30:34 29° ENE 16:34:10 10° N
Cosmos 1602 Rocket 3.8 16:26:48 10° N 16:30:58 43° ENE 16:35:05 10° SSE
Meteor 1-4 Rocket 2.8 16:28:45 10° SSE 16:32:02 41° E 16:35:19 10° NNE
Cosmos 2333 Rocket 3.4 16:29:29 10° SE 16:33:24 20° E 16:35:06 17° ENE
Cosmos 405 Rocket 4.4 16:31:54 10° NNW 16:35:39 39° W 16:39:25 10° SSW
FALCON 9 DEB 4.4 16:34:05 10° S 16:36:14 19° SE 16:36:29 18° SE
COSMO-SKYMED 1 2.5 16:33:16 10° NNE 16:37:37 71° ESE 16:41:56 10° S
CZ-4B R/B 3.4 16:33:06 10° SSE 16:38:47 84° WSW 16:44:29 10° NNW
Cosmos 2263 Rocket 3.8 16:35:15 10° NW 16:40:19 37° WSW 16:45:23 10° S
In-Cosmos 22 Rocket 4.2 16:36:18 10° N 16:41:29 50° ENE 16:46:39 10° SSE
Okean 1-7 Rocket 3.9 16:37:59 10° NNW 16:42:23 68° W 16:46:49 10° S
Cosmos 2123 Rocket 4.2 16:36:27 10° N 16:42:48 81° W 16:49:04 10° S
USA 215 3.6 16:36:47 10° NE 16:43:14 63° NNW 16:49:40 10° WSW
NOSS 2-3 (E) 3.6 16:40:27 10° SW 16:44:29 80° NW 16:49:06 11° NE
SL-8 R/B 3.8 16:39:46 10° W 16:44:33 69° N 16:47:27 24° ENE
Feng Yun 1-1 Rocket 4.3 16:39:10 10° SSE 16:44:40 60° ENE 16:50:20 10° N
Spot 2 4.1 16:42:03 10° SSE 16:46:09 56° ENE 16:50:29 10° N
Cosmos 1980 Rocket 4.1 16:42:24 10° WSW 16:47:15 28° NW 16:52:08 10° N
Cosmos 332 Rocket 3.7 16:42:48 10° SSW 16:47:42 81° ESE 16:52:36 10° NNE
CZ-2C R/B 2.6 16:42:08 10° NNE 16:47:44 74° ESE 16:53:12 10° S
USA 229 DEB 3.6 16:43:20 10° SSW 16:49:36 64° ESE 16:56:10 11° NE
USA 229 3.6 16:43:27 10° SSW 16:49:42 64° ESE 16:56:14 11° NE
Okean-O 3.5 16:48:59 25° E 16:50:04 29° ENE 16:53:53 10° N
Meteor 1-11 4.4 16:44:31 10° NNW 16:50:08 76° W 16:55:47 10° S
Cosmos 1825 Rocket 4.2 16:49:19 10° N 16:53:13 32° ENE 16:54:06 29° E
OE (NEXTSAT) 4.2 16:50:48 10° WSW 16:54:14 79° S 16:55:18 41° E
H-2A R/B 2.4 16:51:45 10° SSE 16:55:58 66° ENE 17:00:03 10° N
Cosmos 2228 3.4 16:55:16 10° SSE 16:59:22 40° E 17:03:30 10° NNE
CSL-04 Rocket 4.4 16:57:22 25° ESE 16:59:33 34° ENE 17:04:30 10° N
Cosmos 1892 2.5 16:56:21 10° N 17:00:06 63° E 17:03:49 10° SSE
Cosmos 1758 Rocket 3.5 16:56:23 10° N 17:00:40 59° ENE 17:04:57 10° SSE
FALCON 9 DEB 3.7 17:00:30 10° SSW 17:02:45 33° SSE 17:02:45 33° SSE
ATLAS 3B R/B 4.4 16:59:55 10° WNW 17:05:09 23° NNW 17:10:36 10° NNE
Cosmos 1626 Rocket 4.2 17:01:08 10° NNW 17:05:23 56° W 17:09:36 10° S
Cosmos 1408 2.3 17:03:52 10° N 17:07:28 69° E 17:09:17 27° SSE
Cosmos 2100 Rocket 4.4 17:02:15 10° SSE 17:08:02 40° E 17:13:53 10° NNE
Cosmos 220 Rocket 4.0 17:05:44 10° SSW 17:10:09 83° WNW 17:14:35 10° NNE
H-2A R/B 3.4 17:05:07 10° S 17:10:16 44° W 17:15:29 10° NNW
Meteor 2-10 Rocket 3.6 17:05:59 10° S 17:11:32 87° W 17:16:53 10° N
SL-08 RB Rocket 3.7 17:07:13 10° SSE 17:11:48 87° W 17:16:27 10° NNW
NOSS 3-1 (A) 3.2 17:06:46 10° SW 17:12:04 89° SE 17:17:05 16° NE
Cosmos 1844 Rocket 2.6 17:07:03 10° NNW 17:12:40 89° ENE 17:17:53 12° SSE
X-37B 2.7 17:13:34 10° W 17:16:32 25° SSW 17:17:40 21° S
USA 267 4.0 17:11:33 10° SSE 17:17:50 49° SW 17:24:09 10° WNW
Cosmos 2173 Rocket 4.2 17:12:49 10° SSE 17:18:37 44° E 17:24:32 10° NNE
HJ-1C 3.5 17:19:13 60° N 17:19:13 60° N 17:21:58 10° N
Cosmos 2237 4.4 17:14:32 10° SSW 17:20:16 75° WNW 17:26:02 10° NNE
DMSP B5D2-2 4.0 17:17:20 10° NNE 17:22:34 65° ESE 17:27:45 10° S
CENTAUR R/B 4.2 17:16:28 10° NW 17:22:49 28° NNE 17:25:49 23° NE
MOS 1-B Rocket 4.4 17:19:04 10° N 17:25:31 63° WNW 17:31:12 10° SSW
Tiangong 3.0 17:25:43 10° WSW 17:28:03 23° SSW 17:28:03 23° SSW
YAOGAN 1 2.8 17:24:50 10° S 17:29:08 68° WSW 17:33:28 10° NNW
H-2A R/B 1.9 17:30:43 64° SSE 17:30:43 64° SSE 17:34:28 10° S
BREEZE-M R/B 2.7 17:28:20 10° WNW 17:31:44 76° SSW 17:32:42 52° SE
Cosmos 1455 4.1 17:30:34 10° S 17:31:46 20° S 17:31:46 20° S
NOSS 3-1 (C) 4.3 17:31:01 10° WSW 17:36:12 43° NW 17:41:23 14° NNE
COSMOS 2428 4.1 17:32:27 10° S 17:34:44 23° SSE 17:34:44 23° SSE
ATLAS 5 CENTAUR R/B 4.1 17:35:21 10° NW 17:37:46 15° NNW 17:40:23 10° NNE
Cosmos 44 3.9 17:32:33 10° SW 17:37:56 64° NW 17:40:55 26° NNE
Lacrosse 4 Rocket 3.6 17:35:36 10° NW 17:39:11 25° WSW 17:42:48 10° SSW
Cosmos 2278 Rocket 3.3 17:34:40 10° N 17:38:37 28° NNE 17:38:37 28° NNE
Cosmos 1140 Rocket 3.3 17:34:57 10° NNW 17:40:11 82° ENE 17:41:12 58° SE
Cosmos 1606 Rocket 3.8 17:36:40 10° S 17:45:48 - N 17:40:12 56° S
Cosmos 407 Rocket 3.4 17:36:42 10° NNW 17:42:04 88° ENE 17:43:30 51° SSE
Cosmos 1825 3.3 17:39:16 10° N 17:41:33 35° NNW 17:41:33 35° NNW
Cosmos 2333 4.0 17:38:18 10° SSW 17:43:55 78° ESE 17:45:49 43° NE
SL-16 R/B 3.8 17:41:32 10° WSW 17:46:35 32° NW 17:51:40 10° NNE
Cosmos 1023 Rocket 4.5 17:45:43 10° NNW 17:50:57 80° WSW 17:51:59 58° S
Cosmos 2322 Rocket 3.7 17:52:58 10° WSW 17:58:01 33° NW 18:03:07 10° NNE
Cosmos 2219 Rocket 2.5 17:57:10 10° SSW 18:01:22 52° S 18:01:22 52° S
CZ-4 R/B 3.5 18:02:06 10° SSW 18:05:31 26° W 18:09:02 10° NW
Cosmos 2360 Rocket 3.2 18:01:22 10° SW 18:06:45 44° NW 18:11:27 14° NNE
Cosmos 2346 Rocket 4.5 18:07:12 10° N 18:13:29 80° W 18:14:41 60° SSW
Cosmos 2333 Rocket 2.4 18:11:25 10° SW 18:17:04 70° WNW 18:17:13 70° NW
USA 215 4.2 18:24:02 33° NNE 18:25:37 37° N 18:31:29 10° WNW
Okean-O 4.2 18:26:34 32° W 18:26:34 32° W 18:30:28 10° NNW
Cosmos 1943 Rocket 4.4 18:27:54 10° N 18:29:08 14° N 18:29:08 14° N
CENTAUR R/B 3.7 19:07:11 10° NW 19:12:59 49° N 19:12:59 49° N
Cosmos 2278 Rocket 4.3 19:18:28 10° NW 19:20:28 22° NW 19:20:28 22° NW
